Location: Unspecified
(33.4390°N, 83.7350°W)
Time: 02:22:26
(UTC-04:00)

Daily predictions for brighter satellites

Satellite Brightness Start Highest point End
(mag) Time Altitude Azimuth Time Altitude Azimuth Time Altitude Azimuth
Cosmos 2082 Rocket 4.4 04:48:51 14° SE 04:48:51 14° SE 04:49:40 10° SSE
Cosmos 2369 Rocket 4.4 04:41:49 12° SE 04:45:10 19° E 04:49:02 10° NE
USA 267 4.0 04:46:16 10° ESE 04:52:27 47° NE 04:57:43 15° NNW
Cosmos 2251 Rocket 3.8 05:03:44 63° ENE 05:03:44 63° ENE 05:08:26 10° NNE
Cosmos 1934 Rocket 4.1 05:04:37 44° SSE 05:06:31 68° E 05:12:37 10° NNE
Cosmos 1821 Rocket 3.9 05:11:52 69° NW 05:11:52 69° NW 05:17:28 10° N
OAO 3 Rocket 4.0 05:15:49 45° SE 05:15:49 45° SE 05:19:24 10° ESE
Cosmos 1666 4.3 05:13:00 10° NNE 05:16:30 34° E 05:19:58 10° SE
Cosmos 2239 Rocket 4.4 05:22:26 62° W 05:22:28 62° W 05:28:40 10° N
Cosmos 1000 Rocket 4.4 05:16:43 10° N 05:23:01 72° W 05:26:29 28° S
ADEOS II 3.7 05:19:21 10° N 05:21:25 21° NNW 05:21:25 21° NNW
GPS 2-04 Rocket1 3.6 05:26:22 44° E 05:26:22 44° E 05:29:11 10° ENE
PSLV R/B 4.0 05:28:49 10° N 05:32:13 51° NNW 05:32:13 51° NNW
Lacrosse 5 rocket 2.9 05:34:11 18° N 05:36:07 29° NE 05:39:28 10° ESE
FALCON 9 R/B 4.3 05:22:29 30° WSW 05:36:58 74° SSE 05:44:38 10° E
CZ-3B R/B 4.5 05:29:45 10° NW 05:39:03 52° NE 05:41:51 10° ESE
Cosmos 967 Rocket 4.4 05:41:35 35° SW 05:44:32 77° WNW 05:50:59 10° NNE
VEP-3 3.7 05:43:06 26° SSW 05:45:16 34° SSE 05:51:49 10° E
CZ-4B R/B 2.7 05:43:09 10° N 05:47:01 87° W 05:48:13 45° SSW
Okean 1 Rocket 3.1 05:43:00 10° N 05:47:20 75° E 05:51:40 10° S
NOSS 7 (E) 4.3 05:48:27 78° E 05:48:27 78° E 05:51:23 10° NNE
CZ-4B R/B 4.5 05:46:07 10° NNE 05:51:04 39° E 05:55:58 10° SSE
Centaur AC-119 4.4 05:48:48 22° SW 05:51:36 29° S 05:54:52 10° ESE
Meteor 1-18 Rocket 4.5 05:51:13 35° SW 05:53:10 48° WNW 05:58:50 10° N
CZ-2C R/B 4.5 05:49:33 10° NE 05:53:42 28° E 05:57:56 10° SSE
MOS 1-B 4.3 05:49:31 10° NNE 05:55:21 86° WNW 06:01:09 10° SSW
BREEZE-M DEB (TANK) 3.9 05:50:08 10° NW 06:00:21 47° NNE 06:03:40 10° E
Cosmos 1302 Rocket 4.0 05:56:44 10° NNW 06:01:48 53° WSW 06:06:53 10° S
SJ-6F 4.4 05:57:54 10° NNE 06:02:00 83° ESE 06:06:06 10° S
ERBS 4.1 06:00:17 10° NNW 06:03:24 32° NE 06:06:31 10° ESE
Meteor 1-12 Rocket 4.4 05:58:00 10° N 06:03:57 83° E 06:09:58 10° S
USA 229 DEB 3.8 05:56:46 10° NNW 06:04:05 82° WSW 06:11:34 10° SSE
USA 229 3.8 05:56:52 10° NNW 06:04:11 83° WSW 06:11:39 10° SSE
Meteor 1-31 Rocket 2.7 06:00:53 10° NNE 06:04:46 89° E 06:08:40 10° SSW
Meteor 2-4 Rocket 3.8 06:00:17 10° S 06:05:37 74° E 06:11:06 10° NNE
Cosmos 1975 Rocket 3.0 06:05:11 10° S 06:09:29 87° E 06:13:49 10° N
Cosmos 1943 Rocket 2.1 06:04:18 10° SSW 06:09:57 83° WNW 06:15:38 10° NNE
Cosmos 2100 Rocket 4.5 06:09:04 10° S 06:15:20 66° E 06:21:35 10° NNE
Okean O Rocket 1.6 06:11:29 10° NNE 06:15:56 85° ESE 06:20:22 10° SSW
Cosmos 1605 Rocket 4.3 06:10:39 10° SSW 06:16:45 47° W 06:22:51 10° N
NOSS 3 (A) 4.3 06:17:20 44° WSW 06:17:53 56° WNW 06:20:36 10° NNE
COSMOS 2487 2.5 06:18:07 10° NNW 06:21:38 81° ENE 06:25:08 10° SSE
IDEFIX/ARIANE 42P 2.5 06:16:30 10° N 06:21:46 78° WNW 06:27:00 10° SSW
Cosmos 1975 3.4 06:19:00 10° NNW 06:22:35 33° W 06:26:09 10° SSW
USA 161 4.1 06:21:48 10° ESE 06:23:33 20° ENE 06:25:27 10° NNE
Delta 2 Rocket 2.7 06:21:54 28° W 06:23:35 82° NNW 06:26:56 10° ENE
NOSS 3-1 (C) 4.2 06:15:56 10° NNW 06:23:53 89° ENE 06:32:36 10° SSE
Cosmos 1447 Rocket 4.4 06:19:25 10° N 06:25:41 77° W 06:31:59 10° S
SEDSat Delta rocket 4.1 06:22:20 19° W 06:27:22 76° S 06:33:55 10° E
Cosmos 2369 Rocket 2.5 06:23:42 11° SW 06:28:44 45° WNW 06:34:06 10° N
Cosmos 1743 3.5 06:27:16 10° NNW 06:30:32 27° W 06:33:48 10° SSW
USA 267 3.6 06:29:18 10° SSE 06:35:24 42° SW 06:41:31 10° WNW
Aurora 2 Rocket 3.9 06:34:27 12° WSW 06:38:12 27° S 06:41:32 10° ESE
IRS-1C Rocket 4.3 06:35:08 10° NNE 06:40:26 75° ESE 06:45:41 10° S
NOSS 2-1 (E) 3.6 06:38:46 10° SSW 06:42:21 60° ESE 06:46:01 10° NE
Cosmos 1455 Rocket 3.4 06:38:38 10° N 06:43:04 72° E 06:47:29 10° SSE
PAYLOAD A 3.8 06:38:54 10° N 06:43:32 59° WNW 06:48:07 10° SSW
Cosmos 1459 Rocket 3.9 06:40:19 10° SSW 06:46:21 74° W 06:52:24 10° N
Cosmos 1536 Rocket 4.1 06:42:44 10° S 06:47:08 65° E 06:51:35 10° NNE
COSMOS 2441 4.3 06:44:46 10° N 06:49:36 73° WNW 06:54:27 10° SSW
SL-19 R/B 3.4 06:49:04 10° SSE 06:51:51 82° WSW 06:54:42 10° NNW
Cosmos 2016 Rocket 4.1 06:47:00 10° S 06:53:04 85° E 06:59:13 10° N
COSMOS 2455 3.4 06:52:03 10° NW 06:57:29 37° WSW 07:02:55 10° S
USA 116 3.9 06:54:29 10° S 06:58:33 78° WSW 07:03:14 10° NNW
GPS 2-04 Rocket1 2.9 07:01:14 10° W 07:05:01 62° N 07:09:02 10° E
CZ-2C R/B 4.5 07:01:56 10° SSE 07:06:38 62° ENE 07:11:19 10° N
